Fort Loudoun Lake Weather Center

Moon Phase Calendar



Fort Loudoun Lake Water Level
Online Cameras

 


      

Current Conditions in Louisville
7/3/2022 11:34:05 AM

84°F
Feels Like 91
Clear
Humidity
71%
Pressure
30.06"
Wind
5.8 mph (WSW)
Dew Point
74°F
UV Index
9/10 (Very High)
Visibility
6 mi

Hourly Forecast

Date & Time Sun, Jul 3
11:00 AM
Sun, Jul 3
12:00 PM
Sun, Jul 3
1:00 PM
Sun, Jul 3
2:00 PM
Sun, Jul 3
3:00 PM
Sun, Jul 3
4:00 PM
Sun, Jul 3
5:00 PM
Sun, Jul 3
6:00 PM
Sun, Jul 3
7:00 PM
Sun, Jul 3
8:00 PM
Sun, Jul 3
9:00 PM
Sun, Jul 3
10:00 PM
Sun, Jul 3
11:00 PM
Mon, Jul 4
12:00 AM
Mon, Jul 4
1:00 AM
Mon, Jul 4
2:00 AM
Mon, Jul 4
3:00 AM
Mon, Jul 4
4:00 AM
Mon, Jul 4
5:00 AM
Mon, Jul 4
6:00 AM
Mon, Jul 4
7:00 AM
Mon, Jul 4
8:00 AM
Mon, Jul 4
9:00 AM
Mon, Jul 4
10:00 AM
Mon, Jul 4
11:00 AM
Mon, Jul 4
12:00 PM
Mon, Jul 4
1:00 PM
Mon, Jul 4
2:00 PM
Mon, Jul 4
3:00 PM
Mon, Jul 4
4:00 PM
Mon, Jul 4
5:00 PM
Mon, Jul 4
6:00 PM
Mon, Jul 4
7:00 PM
Mon, Jul 4
8:00 PM
Mon, Jul 4
9:00 PM
Mon, Jul 4
10:00 PM
Mon, Jul 4
11:00 PM
Tue, Jul 5
12:00 AM
Tue, Jul 5
1:00 AM
Tue, Jul 5
2:00 AM
Tue, Jul 5
3:00 AM
Tue, Jul 5
4:00 AM
Tue, Jul 5
5:00 AM
Tue, Jul 5
6:00 AM
Tue, Jul 5
7:00 AM
Tue, Jul 5
8:00 AM
Tue, Jul 5
9:00 AM
Tue, Jul 5
10:00 AM
Condition
Clear

Clear

Clear

Clear

Clouds

Rain

Clouds

Clouds

Rain

Rain

Rain

Rain

Rain

Clouds

Clouds

Clouds

Rain

Rain

Rain

Rain

Clear

Clear

Clear

Clear

Clouds

Clouds

Clouds

Clouds

Clear

Clouds

Clouds

Clouds

Clouds

Clouds

Clouds

Clouds

Clouds

Clouds

Rain

Rain

Rain

Clouds

Clouds

Clouds

Clouds

Clouds

Clear

Clear
Temperature 84°F84°F85°F87°F89°F89°F87°F85°F86°F83°F79°F75°F74°F73°F72°F71°F71°F70°F69°F69°F70°F72°F76°F80°F84°F88°F90°F92°F94°F94°F91°F86°F84°F83°F80°F79°F79°F78°F77°F75°F73°F72°F72°F71°F72°F74°F78°F83°F
Feels Like 90°F91°F92°F93°F94°F94°F92°F90°F91°F88°F80°F76°F75°F74°F73°F73°F72°F71°F71°F70°F71°F73°F77°F84°F89°F93°F95°F97°F98°F97°F97°F91°F89°F87°F80°F80°F79°F79°F78°F76°F74°F73°F73°F72°F73°F76°F79°F87°F
Cloudiness 2%0%3%9%34%58%80%84%84%86%62%48%56%55%45%37%3%8%8%6%5%4%0%1%12%14%18%17%8%19%37%53%60%64%48%58%68%64%65%64%64%72%78%81%83%83%8%7%
Visibility 6 mi6 mi6 mi6 mi6 mi6 mi6 mi6 mi6 mi6 mi6 mi6 mi6 mi6 mi6 mi6 mi6 mi6 mi6 mi6 mi6 mi6 mi6 mi6 mi6 mi6 mi6 mi6 mi6 mi6 mi6 mi6 mi6 mi6 mi6 mi6 mi6 mi6 mi6 mi6 mi6 mi6 mi6 mi6 mi6 mi6 mi6 mi6 mi
Precipitation 18%44%49%60%65%64%56%52%68%75%67%79%73%73%69%69%33%43%52%60%60%58%3%3%14%16%25%33%36%36%35%36%32%33%35%30%25%41%53%65%26%24%24%24%19%19%10%48%
Humidity 69%71%66%60%54%53%57%63%61%69%77%87%88%90%91%92%93%94%95%95%95%91%84%74%63%56%50%45%42%42%49%59%64%69%71%73%72%73%75%80%89%91%91%92%92%86%77%66%
Dew Point 73°F74°F73°F72°F70°F69°F70°F70°F71°F72°F71°F70°F70°F70°F69°F69°F68°F68°F68°F67°F68°F69°F70°F71°F70°F70°F69°F68°F67°F67°F68°F70°F70°F71°F70°F69°F69°F68°F68°F69°F69°F69°F69°F69°F69°F70°F70°F70°F
Pressure 30.06"30.06"30.06"30.06"30.03"30"30"30"30"30"30.03"30.06"30.06"30.06"30.06"30.06"30.06"30.09"30.09"30.09"30.12"30.12"30.15"30.12"30.12"30.09"30.09"30.06"30.03"30.03"30.03"30.03"30.03"30.03"30.03"30.06"30.06"30.06"30.06"30.06"30.06"30.06"30.06"30.06"30.06"30.09"30.09"30.09"
Wind Speed 2.1 mph2.7 mph3.3 mph3.6 mph3.5 mph3.9 mph5.3 mph3.2 mph0.5 mph1 mph1.7 mph2.1 mph2.8 mph2.4 mph2.4 mph2.5 mph1.7 mph1.7 mph1.6 mph1.3 mph1.7 mph0.8 mph1.2 mph0.6 mph2.7 mph3.7 mph3.9 mph4.4 mph4.9 mph4.8 mph5.3 mph4.9 mph4.5 mph3.5 mph3.2 mph2.2 mph2 mph2.7 mph2.3 mph2 mph1.5 mph1.8 mph2.5 mph2.3 mph1.5 mph2.1 mph3.5 mph5 mph
Wind
Direction
237°
WSW
232°
SW
242°
WSW
262°
W
276°
W
313°
NW
335°
NNW
347°
NNW
338°
NNW
108°
ESE
89°
E
84°
E
96°
E
76°
ENE
67°
ENE
81°
E
73°
ENE
64°
ENE
122°
ESE
98°
E
95°
E
67°
ENE
114°
ESE
166°
SSE
211°
SSW
228°
SW
229°
SW
239°
WSW
241°
WSW
229°
SW
212°
SSW
187°
S
171°
S
188°
S
201°
SSW
186°
S
199°
SSW
187°
S
197°
SSW
190°
S
147°
SSE
144°
SE
198°
SSW
201°
SSW
231°
SW
226°
SW
216°
SW
220°
SW

Daily Forecast

Date High Low Precip. Humidity
Today
Jul 3

Rain
89 °F
68 °F
79%
66%
Monday
Jul 4

Rain
94 °F
69 °F
73%
50%
Tuesday
Jul 5

Rain
92 °F
72 °F
87%
48%
Wednesday
Jul 6

Rain
95 °F
70 °F
100%
44%
Thursday
Jul 7

Rain
94 °F
70 °F
100%
44%
Friday
Jul 8

Rain
95 °F
71 °F
88%
51%
Saturday
Jul 9

Rain
98 °F
73 °F
80%
39%
Sunday
Jul 10

Rain
96 °F
71 °F
87%
50%
Monday
Jul 11

Rain
89 °F
72 °F
100%
52%
Tuesday
Jul 12

Rain
83 °F
71 °F
100%
79%
Wednesday
Jul 13

Rain
91 °F
70 °F
100%
43%
Thursday
Jul 14

Rain
85 °F
69 °F
98%
62%
Friday
Jul 15

Rain
90 °F
67 °F
53%
57%
Saturday
Jul 16

Rain
90 °F
70 °F
85%
45%
Sunday
Jul 17

Rain
74 °F
69 °F
100%
93%
Monday
Jul 18

Rain
78 °F
70 °F
100%
89%

Temperature 8-14 Day Outlook



Precipitation 8-14 Day Outlook




Quick Links
Fort Loudoun Lake News
Fort Loudoun Lake Photos
Fort Loudoun Lake Videos




About Us
Contact Us
Site Map
Search Site
Advertise With Us
   
www.FortLoudoun.info
THE FORT LOUDOUN LAKE WEBSITE

Copyright 2022, Lakes Online
Privacy    |    Legal